Regional Weather Roundup
Issued by NWS Charleston, SC

Current Version | Previous Version | Graphics & Text | Print | Product List | Glossary On
Versions: 1 2 3 4 5 6 7 8 9 10 11 12 13 14 15 16 17 18 19 20 21 22 23 24 25 26 27 28 29 30 31 32 33 34 35 36 37 38 39 40 41 42 43 44 45 46 47 48 49 50
000
ASUS42 KCHS 292313
RWRCHS

REGIONAL WEATHER ROUNDUP
NATIONAL WEATHER SERVICE CHARLESTON SC
700 PM EDT THU SEP 29 2016

NOTE: "FAIR" INDICATES FEW OR NO CLOUDS BELOW 12,000 FEET WITH NO
SIGNIFICANT WEATHER AND/OR OBSTRUCTIONS TO VISIBILITY.

NOT ALL STATIONS ARE QUALITY CONTROLLED. USE DATA WITH CAUTION...
ESPECIALLY DEWPOINT OBSERVATIONS.

SCZ027-030-031-034>040-042>050-300000-
...SOUTHEAST SOUTH CAROLINA...

CITY           SKY/WX    TMP DP  RH WIND       PRES   REMARKS
N CHARLESTON   PTCLDY    82  68  62 S8        29.95R
WATERFRONT PRK   N/A     83  74  74 S8        29.94R HX  90
MOUNT PLEASANT FAIR      81  75  83 S8        29.96R
JOHNS ISLAND   FAIR      81  73  78 S8        29.96R
PINOPOLIS        N/A     82  70  65 CALM      29.88R
MONCKS CORNER  MOCLDY    79  72  78 S3        29.95R
SUMMERVILLE    NOT AVBL
BEAUFORT MCAS  PTCLDY    83  70  64 S8        29.95R
BEAUFORT ARPT  FAIR      81  70  69 S3        29.94R
HILTON HEAD IS CLEAR     82  72  69 S10       29.96R
WALTERBORO     CLEAR     84  63  48 CALM      29.95S
ALLENDALE      FAIR      81  66  61 CALM      29.93R

...SOUTHERN MIDLANDS AND PEE DEE...

CITY           SKY/WX    TMP DP  RH WIND       PRES   REMARKS
GEORGETOWN     FAIR      72  70  94 SE5       29.98S
KINGSTREE      CLOUDY    73  68  83 E6        29.96R
ORANGEBURG     CLEAR     79  62  56 S5        29.94R
BARNWELL       NOT AVBL
AIKEN          MOCLDY    81  57  44 S5        29.97R
MANNING        FAIR      79  68  69 CALM      29.95R
COLUMBIA       PTCLDY    83  56  39 S5        29.92R
SUMTER         CLEAR     81  70  69 E10       29.92R
FLORENCE       CLEAR     75  70  84 SE8       29.96S
MYRTLE BEACH   NOT AVBL
N MYRTLE BEACH CLOUDY    75  70  84 CALM      29.97F

$$

GAZ063-065-086>088-099>101-113>116-118-119-134>141-150-300000-
...SOUTHEAST GEORGIA...

CITY           SKY/WX    TMP DP  RH WIND       PRES   REMARKS
SAVANNAH ARPT  PTCLDY    83  67  58 S10       29.94R
HUNTER AAF     CLEAR     82  76  81 S9        29.92R
FORT STEWART   MOCLDY    83  71  67 SE6       29.91R
STATESBORO     MOCLDY    81  76  83 CALM      29.93R
SYLVANIA       NOT AVBL
CLAXTON        MOCLDY    80  73  81 CALM      29.93R

...CSRA...CENTRAL AND FAR SOUTHEAST GEORGIA...

CITY           SKY/WX    TMP DP  RH WIND       PRES   REMARKS
THOMSON        CLEAR     85  56  37 NW3       29.97R
AUGUSTA-BUSH   PTCLDY    79  60  52 S3        29.91R
AUGUSTA-DANIEL CLEAR     85  51  31 VRB3      29.93R
SWAINSBORO     FAIR      86  59  39 CALM      29.94R
VIDALIA        CLEAR     82  68  61 SW3       29.94R
EASTMAN        FAIR      85  33  15 CALM      29.95S
HAZLEHURST     FAIR      85  61  43 N3        29.93R
ALMA           CLEAR     84  65  52 W5        29.94R
WAYCROSS       PTCLDY    87  72  59 W5        29.94R HX  93
JESUP          MOCLDY    84  75  74 CALM      29.94R HX  92
BAXLEY         FAIR      86  70  58 W3        29.94R HX  90
BRUNSWICK      CLEAR     82  77  83 SE9       29.95S HX  91
SAINT SIMONS   CLEAR     80  74  81 SE9       29.94S

$$

SCZ027-028-034-036>038-045-046-048>050-GAZ119-141-300000-
...LAKE AND SUPPLEMENTAL COASTAL OBSERVATIONS...

STATION/POSITION TIME  TEMP    WIND        PRES    WAVE   SWELL
                       AIR SEA DIR/SP/G            HT/PER HT/PER/DIR
                 (UTC) (F)     (DEG/KT/KT) (MB)    (FT/S) (FT/S/D)
WINYAH BAY       NOT AVBL
LAKE MURRAY      2220   85     220/  4/  6 1012.5
ACE BASIN NERRS  NOT AVBL
FORT PULASKI     2248      82  150/  6/ 10 1014.5R
SAPELO ISLAND    NOT AVBL

$$

ANZ835-935-AMZ111-154-330-350-352-354-370-450-454-472-300000-
...C-MAN AND BUOY OBSERVATIONS...

STATION/POSITION TIME  TEMP    WIND        PRES    WAVE   SWELL
                       AIR SEA DIR/SP/G            HT/PER HT/PER/DIR
                 (UTC) (F)     (DEG/KT/KT) (MB)    (FT/S) (FT/S/D)
BUOY 41004       2250   81 82  200/ 12/ 14 1014.4R   3/ 5   2/130/11
BUOY 41008       2250   82 83  160/ 16/ 19 1013.8R   2/10   2/ 90/10
FOLLY BEACH CMAN 2300   80     190/ 13/ 15 1014.8R
CAPERS NEARSHORE 2208   81 82  200/ 12/ 16 1014.1R
FRIPP NEARSHORE  2208   81 81  180/ 14/ 17 1013.9R


STATION/POSITION TIME  TEMP    WIND        PRES    WAVE   SWELL
                       AIR SEA DIR/SP/G            HT/PER HT/PER/DIR
                 (UTC) (F)     (DEG/KT/KT) (MB)    (FT/S) (FT/S/D)
5E ST. MARYS GA  2201      83                N/A     3/ 4   2/110/11
FRYING PAN BUOY  2250   81 82  160/  8/ 10 1015.8R   4/ 5   3/210/ 5
BUOY 41025       2250   81 78  180/  8/ 10 1016.5R   3/ 9   3/ 50/ 9
CAPE LOOKOUT NC  2300   79     130/  6/  7 1016.4R
BUOY 41002       2250   81 83  180/ 12/ 14 1017.0R   4/ 6   3/140/ 6
BUOY 41010       NOT AVBL
ST AUGUSTINE FL  2300   80 84  210/  6/  8 1015.8R


$$




USA.gov is the U.S. government's official web portal to all federal, state and local government web resources and services.